Weather History for Tucumcari, NM

Change the Weather History Date:

Monday, October 1, 2012

  Actual Average Record
Temperature  
Mean Temperature 66 °F -  
Max Temperature 79 °F 81 °F 95 °F (2000)
Min Temperature 54 °F 51 °F 35 °F (1985)
Cooling Degree Days 1    
Growing Degree Days 16 (Base 50)    
Moisture  
Dew Point 43 °F    
Average Humidity 50    
Maximum Humidity 78    
Minimum Humidity 22    
Precipitation  
Precipitation 0.00 in - - ()
Sea Level Pressure  
Sea Level Pressure 30.00 in    
Wind  
Wind Speed 12 mph (North)    
Max Wind Speed 26 mph    
Max Gust Speed 34 mph    
Visibility 10 miles    
Events      
Averages and records for this station are not official NWS values.
T = Trace of Precipitation, MM = Missing Value Source: NWS Daily Summary

Daily Weather History Graph

Daily Weather History Graph

Search for Another Location

Airport:

Trip Planner

Search our weather history database for the weather conditions in past years. The results will help you decide how hot, cold, wet, or windy it might be!

Date:

Astronomy

Oct. 01, 2012 Rise Set
Actual Time 6:49 AM MDT 6:37 PM MDT
Civil Twilight 6:24 AM MDT 7:02 PM MDT
Nautical Twilight 5:54 AM MDT 7:32 PM MDT
Astronomical Twilight 5:25 AM MDT 8:01 PM MDT
Moon 7:22 PM MDT (10/1) 8:15 AM MDT (10/1)
Length of Visible Light 12h 38m
Length of Day
11h 47m
Full, 97% of the Moon is Illuminated
Oct 1
Full
Oct 8
Last Quarter
Oct 15
New
Oct 21
First Quarter
Oct 29
Full

Hourly Weather History & Observations

Time (MDT) Temp. Dew Point Humidity Pressure Visibility Wind Dir Wind Speed Gust Speed Precip Events Conditions
12:53 AM 57.9 °F 51.1 °F 78% 29.93 in 10.0 mi WNW 11.5 mph - N/A   Clear
1:53 AM 59.0 °F 50.0 °F 72% 29.93 in 10.0 mi WNW 11.5 mph - N/A   Clear
2:53 AM 57.9 °F 51.1 °F 78% 29.91 in 10.0 mi NW 10.4 mph - N/A   Clear
3:53 AM 57.9 °F 48.9 °F 72% 29.92 in 10.0 mi WNW 12.7 mph - N/A   Clear
4:53 AM 55.9 °F 46.9 °F 72% 29.96 in 10.0 mi NW 5.8 mph - N/A   Clear
5:53 AM 54.0 °F 45.0 °F 72% 29.99 in 10.0 mi Calm Calm - N/A   Clear
6:53 AM 55.0 °F 45.0 °F 69% 30.01 in 10.0 mi North 10.4 mph - N/A   Clear
7:53 AM 61.0 °F 45.0 °F 56% 30.03 in 10.0 mi North 12.7 mph - N/A   Clear
8:53 AM 66.9 °F 44.1 °F 44% 30.04 in 10.0 mi North 20.7 mph - N/A   Clear
10:53 AM 75.0 °F 42.1 °F 31% 30.04 in 10.0 mi NNE 23.0 mph 34.5 mph N/A   Clear
12:53 PM 75.9 °F 42.1 °F 30% 30.05 in 10.0 mi North 23.0 mph 28.8 mph N/A   Mostly Cloudy
1:53 PM 77.0 °F 42.1 °F 29% 30.02 in 10.0 mi North 19.6 mph 28.8 mph 0.00 in   Clear
2:53 PM 78.1 °F 39.0 °F 25% 30.00 in 10.0 mi North 26.5 mph 33.4 mph N/A   Clear
3:53 PM 78.1 °F 36.0 °F 22% 29.99 in 10.0 mi NNE 20.7 mph 31.1 mph N/A   Clear
4:53 PM 77.0 °F 36.0 °F 23% 29.99 in 10.0 mi NNE 21.9 mph 29.9 mph N/A   Clear
5:53 PM 73.9 °F 37.0 °F 26% 30.00 in 10.0 mi NE 18.4 mph 25.3 mph N/A   Clear
6:53 PM 68.0 °F 37.0 °F 32% 30.02 in 10.0 mi NE 8.1 mph - N/A   Clear
7:53 PM 63.0 °F 37.9 °F 40% 30.03 in 10.0 mi ENE 6.9 mph - N/A   Clear
8:53 PM 60.1 °F 42.1 °F 51% 30.04 in 10.0 mi ENE 5.8 mph - N/A   Scattered Clouds
9:53 PM 61.0 °F 44.1 °F 54% 30.04 in 10.0 mi East 5.8 mph - N/A   Mostly Cloudy
10:53 PM 59.0 °F 44.1 °F 58% 30.05 in 10.0 mi East 5.8 mph - N/A   Mostly Cloudy
11:53 PM 57.9 °F 45.0 °F 62% 30.05 in 10.0 mi NE 4.6 mph - N/A   Mostly Cloudy